CUSAT 2 & FALCON 9 R/B (39271 NORAD) Tracking and Keplerian Element Data

This shows tracking and keplerian element data for the satellite.

Feedback or suggestion? Click here.




ElementValue
Catalog39271
NameCUSAT 2 & FALCON 9 R/B
Epoch Orbit25388
Epoch Day228.89877993
Epoch Year2018
RAAN264.9852
Inclination80.9654
Eccentricity0.0612758
Argument of Perigee18.0217
Mean Anonmoly344.1676
Mean Motion14.42198504
Decay Rate7.193E-05
L11 39271U 13055G 18228.89877993 .00007193 00000-0 17918-3 0 9996
L22 39271 80.9654 264.9852 0612758 18.0217 344.1676 14.42198504253885

Live tracking and technical data element details for CUSAT 2 & FALCON 9 R/B (NORAD 39271). CUSAT 2 & FALCON 9 R/B can be tracked NOW for your location showing map with azimuth and elevation plus other details from your city location.

Track the satellite on the map from your city or location and see movement details for azimuth, elevation, latitude, longitude, range, height, and movement on the map or in text.







IsCatalogInMostPopularTable: catalog: 39271, numindb: 129
Update: records affected: 1



GetName: 39271 CUSAT 2 & FALCON 9 R/B

Hit Count: updated at: Fri, 17 Aug 2018 13:20:11 GMT